Theta_e
320 319 320 320 324 325 329 336 344 344 341 346 346 346 345 345 345 344 345 345 345 346 346 345 346 347 347 346 345 346 346 345 347 347 347 350 348 346 344 344 347 347 347 345
318 318 320 321 325 326 327 336 340 338 341 345 345 348 344 343 344 344 345 345 345 346 346 345 346 346 346 346 345 345 346 346 346 347 347 347 345 342 344 346 344 344 344 345
316 319 322 326 329 330 327 329 336 337 340 343 346 348 347 345 344 344 344 345 345 346 346 346 345 346 346 346 345 345 345 346 346 342 346 344 342 339 335 342 339 339 341 342
318 320 324 328 329 329 330 327 333 338 340 344 345 352 344 345 346 345 346 345 346 346 346 346 346 346 347 346 345 345 346 347 343 346 346 344 338 341 338 338 337 341 340 338
319 321 322 326 329 329 329 326 328 337 338 341 343 343 343 343 344 346 345 346 347 347 347 347 347 348 348 346 346 346 344 343 345 343 339 337 337 338 342 339 337 339 338 335
319 322 322 322 324 328 328 326 322 323 331 340 344 341 338 344 346 344 343 342 347 348 348 347 348 349 348 346 345 347 346 341 335 331 330 326 325 328 335 333 336 336 333 331
320 320 322 326 326 325 324 321 323 328 336 339 331 341 340 339 343 343 342 340 345 348 349 349 349 350 349 346 341 345 347 329 326 325 325 323 321 325 330 332 334 333 332 329
317 320 320 322 324 324 322 321 322 324 326 330 324 340 341 337 338 343 342 340 342 345 348 350 349 349 349 347 345 342 341 332 327 327 325 323 323 321 320 319 320 322 321 321
318 319 322 322 323 323 324 322 321 321 323 326 325 328 328 334 332 339 341 338 340 343 346 348 348 348 349 348 344 341 342 340 329 326 326 326 326 321 317 317 317 317 320 324
318 320 319 323 323 322 323 321 324 320 326 330 326 330 329 331 336 336 338 336 340 343 345 347 348 348 348 347 343 341 344 346 336 329 327 326 325 322 318 319 320 320 327 332
315 318 320 323 321 323 324 321 321 320 321 325 327 327 326 330 333 336 336 338 340 343 344 345 346 347 346 347 345 341 344 346 346 340 333 328 324 324 320 317 318 319 320 319
316 317 320 320 321 322 320 322 321 324 323 322 324 326 328 330 333 336 336 338 340 341 343 344 345 346 347 347 346 345 343 344 346 347 343 331 323 324 325 319 319 319 319 320
316 315 318 319 320 322 323 322 321 319 320 326 328 329 329 328 330 337 337 338 340 342 342 344 344 345 346 346 345 345 346 345 346 348 348 339 325 325 328 321 321 321 320 320
321 313 321 322 321 321 325 324 323 323 323 323 325 328 334 329 329 330 337 338 339 339 340 342 344 345 345 345 345 346 347 348 348 348 350 346 328 331 328 323 321 320 320 321
320 318 316 321 322 323 324 325 324 325 324 327 327 328 331 328 328 330 337 339 339 340 339 340 341 342 343 344 345 346 346 347 347 349 350 350 336 333 327 327 321 320 321 320
318 319 320 321 321 322 323 324 325 325 323 326 324 330 327 330 330 331 334 336 337 338 340 340 340 341 341 341 343 344 345 346 347 350 351 342 328 328 332 336 326 322 321 322
318 321 317 323 322 323 325 325 325 326 327 327 329 327 328 330 329 330 333 336 337 337 337 340 340 340 341 343 343 343 343 345 347 351 351 347 331 334 335 334 336 326 321 321
324 320 318 323 323 326 324 329 327 332 334 333 332 327 330 331 332 332 333 335 336 336 337 337 337 338 336 336 339 342 343 344 348 350 349 347 343 339 337 334 338 333 322 324
325 319 326 324 324 326 332 333 335 332 333 332 332 331 331 332 332 332 332 333 335 333 332 332 332 330 329 328 330 335 339 342 348 350 349 348 343 342 336 336 338 336 330 324
326 323 326 327 325 329 333 332 333 331 332 331 332 331 331 332 334 329 332 331 332 332 332 332 332 331 330 330 329 334 341 346 348 348 348 348 344 341 337 337 337 336 333 330
334 333 331 331 333 332 331 331 332 336 332 330 331 332 332 329 329 334 332 333 334 334 333 333 333 332 332 331 330 332 345 347 348 349 348 346 343 340 340 339 338 337 335 333
335 338 337 333 332 336 330 331 334 331 328 330 331 331 331 331 331 331 332 333 335 335 336 335 334 335 335 333 331 332 342 347 349 347 346 345 342 340 340 338 335 333 329 331
334 335 337 333 331 329 332 330 329 329 329 329 329 329 332 333 333 334 334 332 331 332 330 330 329 330 339 337 335 343 347 348 346 345 343 342 338 337 336 331 329 327 326 327
333 331 333 334 331 330 328 329 327 325 323 326 328 328 329 330 331 333 335 336 333 334 334 334 333 334 341 342 344 347 346 345 343 342 340 337 337 334 328 327 329 331 327 329
331 332 333 333 332 329 326 324 323 324 326 326 328 328 330 332 332 330 331 336 336 335 339 340 340 344 345 345 345 343 343 341 340 337 331 330 333 327 326 327 327 329 328 330
329 329 330 333 329 327 326 322 323 322 322 323 327 323 321 321 322 324 328 331 338 336 341 341 344 345 340 341 341 340 339 336 328 327 327 327 326 326 326 327 328 330 331 330
Wind_Speed
7 4 7 11 9 7 10 8 17 10 8 5 8 8 20 30 27 26 28 28 32 37 36 34 32 30 30 24 22 23 22 18 17 18 17 16 14 12 14 14 15 16 16 13
3 8 12 6 7 9 8 9 13 2 9 5 7 8 18 24 29 33 33 32 36 39 38 37 36 34 31 26 24 24 21 20 19 19 17 14 13 12 12 12 11 10 9 8
7 6 8 7 6 8 5 8 10 8 10 5 9 4 12 13 19 26 30 36 34 40 42 41 40 36 33 30 26 27 24 22 22 17 16 16 14 12 11 12 10 11 9 10
6 7 7 5 6 7 4 8 8 10 17 8 8 5 9 13 15 15 26 31 34 37 42 42 44 38 35 32 27 26 24 27 22 21 20 17 14 12 11 12 12 11 11 14
8 7 7 5 7 8 9 9 9 9 15 5 5 4 6 13 10 21 26 32 36 41 46 46 46 41 33 32 31 29 25 25 24 24 21 18 17 14 14 13 12 13 12 12
10 5 7 10 6 9 2 4 8 6 5 5 12 8 5 10 27 26 24 32 38 43 49 49 47 42 35 31 30 33 29 28 27 26 23 19 17 15 14 15 17 16 14 13
4 8 4 4 4 4 5 7 2 3 2 6 9 7 11 18 24 28 27 35 39 44 47 52 50 47 42 37 35 37 34 32 31 29 25 22 18 15 15 15 16 17 15 15
7 9 9 3 8 8 7 10 6 7 5 6 7 7 12 18 28 38 34 39 34 41 49 51 53 51 48 44 40 39 39 36 36 33 29 24 18 16 15 16 16 16 13 12
7 8 3 6 6 11 4 4 9 5 1 3 5 6 8 7 11 24 33 29 35 42 48 53 53 53 51 47 45 43 43 41 39 36 32 27 20 19 17 14 13 13 14 12
8 3 7 13 5 6 13 7 1 2 6 5 4 3 5 6 6 12 14 25 37 43 44 50 51 53 54 52 48 45 45 44 42 40 35 30 24 20 19 18 17 15 13 13
8 6 6 4 8 12 3 3 3 5 4 7 4 7 9 8 8 14 19 36 39 40 46 48 51 54 57 56 52 50 49 48 46 43 39 33 28 24 18 17 16 14 11 12
10 7 12 14 5 3 7 10 9 7 6 1 4 7 3 9 9 18 23 30 35 45 47 49 53 53 56 58 55 55 53 52 50 47 43 38 30 29 23 19 17 14 13 13
9 4 7 8 4 1 4 5 6 3 4 9 6 6 1 4 7 19 20 30 40 46 42 46 45 50 54 57 56 57 58 57 53 51 48 44 35 33 29 22 18 15 13 13
20 6 15 16 9 5 5 6 8 8 5 6 7 7 4 7 9 10 26 30 39 43 46 48 47 53 54 56 58 56 55 58 59 56 53 52 45 36 32 24 19 17 15 14
15 9 8 19 16 6 7 9 7 8 12 10 11 10 10 12 12 20 37 36 35 39 43 46 49 48 49 51 52 53 55 57 57 60 59 55 50 35 32 26 20 18 17 16
4 7 10 8 11 15 11 14 13 17 2 3 6 7 7 16 6 13 29 35 35 35 38 44 47 46 47 47 48 49 51 54 56 57 59 48 34 25 26 25 24 22 20 17
6 11 6 17 6 6 4 11 6 6 5 7 5 10 7 4 7 18 29 37 42 38 34 34 36 35 36 39 38 40 44 47 51 49 51 48 36 26 41 38 35 25 21 20
5 8 3 12 6 6 10 1 7 11 3 2 5 2 11 18 36 30 35 46 36 29 23 20 17 15 15 13 20 28 34 39 45 45 47 46 41 45 34 40 40 28 23 24
4 5 2 7 7 2 4 5 4 6 5 4 5 4 4 10 12 4 23 25 27 25 20 15 12 9 4 8 16 19 27 34 40 44 44 39 34 43 32 34 39 31 23 26
4 4 5 3 8 6 2 10 15 7 3 8 7 3 6 16 9 5 18 20 18 14 12 12 8 5 6 7 12 18 26 32 36 38 38 39 32 39 37 30 27 29 25 27
5 4 4 2 4 2 8 17 10 6 4 15 8 5 6 6 3 11 13 12 13 11 7 3 3 5 8 12 8 20 22 25 29 28 29 29 29 25 29 27 23 23 26 31
3 2 3 3 5 2 19 3 6 1 6 15 25 30 35 30 25 23 18 13 7 4 4 5 8 14 17 14 15 16 19 19 20 19 21 28 27 25 24 21 18 21 25 40
1 3 4 3 4 2 11 8 14 8 9 21 34 31 35 36 30 25 19 13 9 7 8 12 10 15 22 21 15 13 15 16 17 21 24 26 20 18 16 15 23 30 20 25
2 5 5 3 1 3 14 14 15 22 27 26 25 23 22 24 23 24 22 18 17 16 15 15 14 16 18 15 10 9 13 13 15 20 22 19 19 16 19 22 15 27 24 25
2 7 5 2 3 5 16 19 21 22 16 18 17 17 15 13 15 16 15 18 12 16 14 11 10 12 13 9 9 11 12 11 13 13 11 9 17 15 19 13 12 16 19 18
2 6 4 4 8 14 12 18 19 17 19 17 15 16 21 20 17 9 7 12 13 8 6 7 5 6 5 11 16 15 15 16 19 14 10 17 20 17 14 16 19 22 17 14
Wind_Direction
184 140 189 193 184 154 143 182 199 209 188 139 199 160 175 182 188 191 196 202 206 209 211 210 209 208 203 209 209 209 205 209 218 222 237 244 253 246 239 243 246 248 252 262
92 208 211 178 157 141 156 169 203 300 156 102 182 196 186 185 196 194 196 201 207 212 213 211 208 208 210 209 207 207 211 221 231 233 242 251 252 244 233 229 230 239 252 256
164 234 152 174 159 145 168 173 188 185 161 49 116 349 207 218 212 211 206 209 210 211 212 212 208 210 212 208 206 209 216 223 226 225 234 243 243 243 233 221 223 241 242 247
213 233 178 173 183 141 195 206 210 153 161 189 168 217 224 211 222 221 216 214 213 214 217 213 209 208 211 213 210 217 224 222 225 228 232 242 251 247 236 239 237 229 225 239
227 215 162 176 197 142 227 155 198 174 184 113 209 103 255 167 226 229 216 214 212 212 216 214 210 208 207 211 212 215 219 216 221 228 228 230 237 239 243 248 236 228 230 255
209 241 165 189 182 175 191 104 42 41 133 202 199 182 237 182 213 225 218 217 210 210 213 216 216 209 205 204 208 212 215 215 214 216 219 220 227 237 238 239 227 230 244 260
194 236 243 156 230 141 100 83 326 341 351 214 195 194 232 207 216 215 207 210 207 207 209 212 210 208 205 202 201 206 208 209 209 211 214 218 221 231 244 247 235 238 245 260
173 228 205 197 186 170 180 162 162 192 199 228 111 206 237 224 224 222 213 209 203 204 210 211 212 210 209 207 205 205 207 210 212 214 213 215 220 225 232 232 231 235 236 232
169 251 283 201 192 152 200 155 196 142 354 121 205 266 324 265 218 212 209 199 203 207 207 213 215 214 212 211 211 210 211 213 215 217 216 216 218 223 221 217 215 219 223 232
211 205 224 249 193 227 197 167 104 354 172 231 258 245 228 288 234 208 194 198 204 208 207 213 215 218 217 217 217 217 216 218 217 218 218 220 216 220 219 215 217 222 222 236
156 152 254 162 202 214 150 175 83 131 145 175 226 256 212 226 211 192 197 201 204 202 210 213 217 221 223 222 220 220 220 220 222 221 218 217 220 222 222 217 219 226 229 235
204 178 233 229 228 197 183 205 176 207 247 166 174 262 247 240 205 192 197 198 201 209 215 219 222 222 222 225 223 224 223 224 225 223 218 214 219 223 223 219 217 217 221 224
170 205 209 317 316 106 173 191 175 125 95 189 160 253 287 234 173 196 192 191 202 212 212 217 214 220 225 227 227 228 226 227 227 224 220 214 217 226 221 220 218 219 222 224
170 144 206 223 220 158 191 190 192 164 157 171 212 216 249 223 191 191 205 195 200 208 215 216 219 228 230 231 230 229 232 232 231 226 222 218 216 227 219 218 215 220 222 228
164 191 173 227 216 197 240 245 183 191 200 179 219 199 216 205 199 199 203 207 202 207 210 214 218 222 227 230 230 234 238 239 238 231 225 222 217 220 220 218 216 217 214 218
197 208 169 218 210 198 223 246 238 224 202 140 131 229 237 202 165 163 187 189 194 198 205 210 216 222 225 231 234 238 240 242 242 236 227 218 212 204 229 238 233 220 213 222
167 189 129 230 182 171 235 231 204 197 164 153 147 215 158 184 196 192 191 192 196 198 202 206 211 220 228 233 241 248 248 247 245 236 227 218 206 240 234 229 229 224 212 230
173 205 153 213 105 197 245 267 187 129 104 87 279 201 184 191 202 202 196 195 197 196 191 192 195 205 221 241 253 256 257 258 248 235 225 219 214 258 237 222 225 227 228 233
128 133 132 168 182 159 331 32 47 358 165 205 198 207 216 148 162 213 203 192 179 176 175 177 180 188 199 276 272 269 262 260 248 236 234 241 239 230 217 224 227 232 239 246
80 80 120 138 146 167 314 327 328 307 340 21 22 69 134 127 172 226 193 185 174 174 169 170 179 194 239 282 292 282 262 253 253 242 237 229 227 224 218 232 231 237 245 252
347 2 63 12 107 90 0 313 311 76 239 335 25 53 97 83 99 98 137 138 142 146 154 171 258 265 262 259 263 288 263 257 256 254 247 231 233 242 233 245 258 262 262 265
69 53 15 334 70 1 345 11 79 328 41 91 77 78 80 79 67 63 68 68 79 63 353 314 299 289 280 271 281 266 263 261 254 242 237 228 241 245 242 241 269 276 284 285
72 152 114 229 169 253 349 31 67 69 58 66 71 70 71 69 61 50 42 25 5 352 329 300 308 302 278 270 267 258 246 237 226 223 221 225 226 228 232 250 265 240 284 262
102 107 153 196 242 129 63 74 72 68 65 65 62 61 60 51 39 40 26 18 12 356 348 332 325 293 265 242 232 219 213 207 213 210 214 222 228 217 238 266 255 251 257 271
129 125 170 37 101 103 83 83 72 67 66 61 51 31 12 356 9 5 343 351 355 347 345 324 296 259 228 204 187 188 197 212 203 173 176 200 208 229 245 239 259 265 269 262
304 133 166 218 183 120 107 92 85 73 64 61 54 38 49 53 55 24 311 267 284 302 308 0 300 209 163 180 181 180 184 176 159 163 230 251 230 229 237 253 282 265 258 247